NIMBUS 2 DEB, 27406

Orbit data source: Space-Track

NIMBUS 2 DEB, 27406 is space debris in SSO originally from a launch on Sun, 15 May 1966 UTC launched from the Air Force Western Test Range (AFWTR). Debris objects in space refer to the collection of defunct objects orbiting the Earth. Examples of debris include non-operational satellites, rocket bodies, and fragments generated from explosions, collisions, or faulty payload assembly.

Loading next visibility...
Identifier
27406, 1966-040AL
Orbit
SSO
Country
Flag of USUS
Related business
Manufacturer
Unknown
Mission
Spacecraft
Bus & Motor
Unknown
Mass
Unknown
Launch date (UTC)
1966-05-15 (60 years ago)
Launch vehicle
Unknown
Launch site
Air Force Western Test Range (AFWTR)
Object type
Payload
Rocket body
Debris
Shape & HBR
Unknown shape, 0.1 m
Radar Cross Section
Small (<0.1 m²)

Expand to show TLE details & history
Last TLE update: 23 hours ago

TLE from 23 hours ago
0 NIMBUS 2 DEB
1 27406U 66040AL  25346.34123859  .00004203  00000-0  49599-2 0  9997
2 27406 100.2969  12.0490 0039430 318.5287  61.2512 13.68178783299792
Epoch: 2025-12-12T08:11Z
TLE epoch observation values (Epoch: 2025-12-12T08:11:23.014Z)
Latitude
19.84196°
Longitude
164.17953°
Altitude
994.57 km
Speed
7.363 km/s
True Right ascension
00h 33m 14s
True Declination
19° 44' 09"
Sunlit
Object was in daylight at epoch
Visualization orbit readout
Latitude
Unknown
Longitude
Unknown
Altitude
Unknown
Speed
Unknown
Apparent Right ascension
Unknown
Apparent Declination
Unknown
Sunlit
N/A
Visualization observer readout
Local Sidereal Time
05:23:01
Azimuth
Unknown
Elevation
Unknown
Doppler factor
Unknown
Orbital elements
Apogee altitude
1,032.531 km
Perigee altitude
974.32 km
Semi-major axis
7,381.563 km
Eccentricity
0.00394
Inclination
100.2969°
RAAN
12.049°
Arg. of periapsis
318.5287°
True anomaly
61.64828°
Mean anomaly
61.2512°
Eccentric anomaly
61.44965°
Mean motion
3.42232 °/min
Orbital period
105.19 mins
BSTAR
0.0049599
Loading maneuver chart data...
Computing Atmospheric mass density...
Loading historical data...
Loading historical data...
Loading historical data...
Loading historical data...
Loading historical data...
Loading historical data...
Loading historical data...

Documentation

Showing up to 5 results
|